EXPRESS-AMU1

Last updated on Sun Jun 21 2026 00:03:06 GMT+0000 (Coordinated Universal Time)

1 41191U 15082A 26171.25656352 .00000000 00000+0 00000+0 0 9991 2 41191 0.0193 0.5376 0002809 89.8685 306.5438 1.00267382 38295
UTC large
Height (km)
Speed (km/s)
/
Latitude / Longitude
Inclination (degrees)
Orbital Period (minutes)
Azimuth
Elevation
Range (km)
Doppler Factor

Next 0 passes for location: London (51.5072 / 0.1276)

No passes found over London.
EXPRESS-AMU1